Simultaneous Nadir Overpasses (SNOs) Predictions

Prediction of SNOs between METOP-B and TERRA Satellite Orbit:

Table of predicted SNOs for the next 14.0 days since TLE Epoch: 7/31/2021
Index Date (METOP-B) Time (METOP-B) Lat,Lon (METOP-B) SZA (METOP-B ) Date (TERRA) Time (TERRA) Lat,Lon (TERRA) SZA (TERRA ) Distance(km) Time Diff (sec)
1 07/31/2021 15:53:18 81.25, -13.52 65.62 07/31/2021 15:53:44 81.26, -13.35 65.65 3.08 26
2 07/31/2021 16:43:57 -81.26, 154.45 114.30 07/31/2021 16:43:10 -81.27, 154.55 114.31 1.97 47
3 08/03/2021 11:27:41 81.25, 52.87 66.34 08/03/2021 11:27:57 81.25, 52.95 66.35 1.35 16
4 08/03/2021 12:18:20 -81.26,-139.15 113.58 08/03/2021 12:17:23 -81.27,-139.13 113.60 0.52 57
5 08/06/2021 07:02:03 81.26, 119.63 67.15 08/06/2021 07:02:09 81.26, 119.58 67.14 0.97 6
6 08/06/2021 07:52:43 -81.26, -72.77 112.82 08/06/2021 07:51:36 -81.26, -72.84 112.86 1.40 67
7 08/09/2021 01:45:46 -81.24, 17.93 112.16 08/09/2021 01:46:55 -81.25, 18.12 112.11 3.18 69
8 08/09/2021 02:36:26 81.25,-174.40 67.89 08/09/2021 02:36:21 81.25,-174.20 67.91 3.28 5
9 08/11/2021 21:20:08 -81.25, 84.68 111.29 08/11/2021 21:21:07 -81.26, 84.70 111.25 0.77 59



Historial Predications of SNOs between METOP-B and TERRA
